This is the latest recevied weather packets stored in our database for station/object W2OBX. If no packets are shown the sender has not sent any weather packets the latest 10 day(s).
| Time | Temp. | Humidity | Pressure | Rain* | Wind** | Luminosity | Snow |
|---|---|---|---|---|---|---|---|
| 1778197946 | 13.89° C | 93% | 1013.9 hPa | 0 mm | - | 6 W/m² | - |
| 1778197643 | 13.89° C | 93% | 1014.1 hPa | 0 mm | - | 6 W/m² | - |
| 1778197339 | 14.44° C | 92% | 1014.3 hPa | 0 mm | - | 6 W/m² | - |
| 1778197036 | 14.44° C | 92% | 1014.3 hPa | 0 mm | - | 8 W/m² | - |
| 1778196734 | 14.44° C | 91% | 1014 hPa | 0 mm | - | 7 W/m² | - |
| 1778196431 | 15° C | 91% | 1014.1 hPa | 0 mm | - | 7 W/m² | - |
| 1778196128 | 15° C | 90% | 1014 hPa | 0 mm | - | 8 W/m² | - |
| 1778195824 | 15° C | 90% | 1014.2 hPa | 0 mm | - | 8 W/m² | - |
| 1778195521 | 15° C | 89% | 1014.3 hPa | 0 mm | - | 11 W/m² | - |
| 1778195217 | 15° C | 89% | 1014.2 hPa | 0 mm | - | 16 W/m² | - |
| 1778194915 | 15° C | 91% | 1014.1 hPa | 0 mm | - | 11 W/m² | - |
| 1778194609 | 15° C | 91% | 1014.3 hPa | 0 mm | - | 19 W/m² | - |
| 1778194306 | 15° C | 90% | 1014.3 hPa | 0 mm | - | 22 W/m² | - |
| 1778194002 | 15° C | 89% | 1014.4 hPa | 0 mm | - | 29 W/m² | - |
| 1778193698 | 15° C | 90% | 1014.4 hPa | 0 mm | - | 22 W/m² | - |
| 1778193394 | 15.56° C | 88% | 1014.4 hPa | 0 mm | - | 26 W/m² | - |
| 1778193092 | 15.56° C | 87% | 1014.2 hPa | 0 mm | - | 25 W/m² | - |
| 1778192789 | 15.56° C | 89% | 1014.3 hPa | 0 mm | - | 21 W/m² | - |
| 1778192485 | 15.56° C | 86% | 1014.4 hPa | 0 mm | - | 22 W/m² | - |
| 1778192181 | 15.56° C | 87% | 1014.3 hPa | 0 mm | - | 20 W/m² | - |
| 1778191878 | 15.56° C | 87% | 1014.2 hPa | 0 mm | - | 24 W/m² | - |
| 1778191575 | 15° C | 87% | 1014.2 hPa | 0 mm | - | 26 W/m² | - |
| 1778191273 | 15° C | 89% | 1014.2 hPa | 0 mm | - | 27 W/m² | - |
| 1778190968 | 15° C | 90% | 1014.1 hPa | 0 mm | - | 34 W/m² | - |
| 1778190667 | 15.56° C | 90% | 1014.1 hPa | 0 mm | - | 36 W/m² | - |
* Rain latest hour (hover to see other rain measurements)
** Current wind speed in m/s (hover to see current wind gust speed)